Tracking 25693 objects as of 1-Jul-2022
HD Live streaming from Space Station
objects crossing your sky now

FENGYUN 1C DEB

Track FENGYUN 1C DEB now!
10-day predictions


NORAD ID: 36159
Int'l Code: 1999-025DSG
Perigee: 460.8 km
Apogee: 778.4 km
Inclination: 99.5 °
Period: 96.9 minutes
Semi major axis: 6990 km
RCS: 0.0089 m2 (small)
Launch date: May 10, 1999
Source: People's Republic of China (PRC)
Launch site: Taiyaun Space Center, China (TSC)

Note: This is SATELLITE DEBRIS
aabbcc
Your satellite tracking list
Your tracking list is empty




NASA's NSSDC Master Catalog

Two Line Element Set (TLE):
1 36159U 99025DSG 22181.26114414  .00002341  00000-0  17810-3 0  9996
2 36159  99.5070 329.4784 0227223 310.1077  48.0412 14.85356579502009
Source of the keplerian elements: AFSPC